Home   Weather   Beja   Past weeks

Flag for Portugal Past Weather in Beja, Portugal — Yesterday and Last 2 Weeks

Now
55 °F

Sunny.


Feels Like: 54 °F
Forecast: 59 / 89 °F
Wind: 7 mph from Northwest

Location: Beja Airport

Current Time: Sep 26, 2016 at 9:54:08 AM

Latest Report: Sep 26, 2016 at 9:00 AM


Visibility: 10 mi

Pressure: 30.15 "Hg

Humidity: 88%

Dew Point: 52 °F

Location of BejaLocation

Past Weather in Beja — Graph

°F

Beja Temperature Yesterday

Maximum temperature yesterday: 81 °F (at 5:00 PM)
Minimum temperature yesterday: 61 °F (at 8:00 AM)
Average temperature yesterday: 69 °F

High & Low Weather Summary for the Past Weeks

 TemperatureHumidityPressure
High91 °F (Sep 11, 4:00 PM)100% (Sep 11, 8:00 AM)30.24 "Hg (Sep 11, 8:00 AM)
Low52 °F (Sep 22, 6:00 AM)12% (Sep 19, 5:00 PM)29.89 "Hg (Sep 12, 3:00 PM)
Average69 °F60%30.08 "Hg
* Reported Sep 11 8:00 AM — Sep 26 8:00 AM, Beja, Weather by CustomWeather, © 2016

Note: Actual official high and low records may vary slightly from our data, if they occured in-between our weather recording intervals... More about our weather records

Advertising

Beja Weather History for the Previous 24 Hours

Scroll right to see more
 ConditionsComfort  
Time TempWeatherWind HumidityBarometerVisibility
8:00 AM
Mon, Sep 26
54 °FSunny.7 mph94%30.12 "Hg10 mi
7:00 AM54 °FClear.6 mph88%30.12 "Hg10 mi
6:00 AM54 °FClear.8 mph88%30.12 "Hg10 mi
5:00 AM55 °FClear.7 mph82%30.12 "Hg10 mi
4:00 AM55 °FClear.5 mph82%30.12 "Hg10 mi
3:00 AM57 °FClear.5 mph77%30.12 "Hg10 mi
2:00 AM59 °FClear.8 mph72%30.12 "Hg10 mi
1:00 AM61 °FClear.7 mph63%30.12 "Hg10 mi
12:00 AM64 °FClear.8 mph60%30.12 "Hg10 mi
11:00 PM
Sun, Sep 25
66 °FClear.9 mph56%30.12 "Hg10 mi
10:00 PM68 °FClear.12 mph53%30.15 "Hg10 mi
9:00 PM72 °FClear.13 mph50%30.12 "Hg10 mi
8:00 PM75 °FClear.13 mph36%30.09 "Hg10 mi
7:00 PM79 °FSunny.10 mph26%30.09 "Hg10 mi
6:00 PM81 °FPassing clouds.13 mph26%30.09 "HgN/A
5:00 PM81 °FPassing clouds.10 mph32%30.09 "HgN/A
4:00 PM79 °FPassing clouds.7 mph45%30.09 "HgN/A
3:00 PM77 °FPassing clouds.7 mph61%30.12 "HgN/A
2:00 PM73 °FPassing clouds.5 mph69%30.12 "HgN/A
1:00 PM72 °FBroken clouds.7 mph73%30.15 "HgN/A
12:00 PM70 °FBroken clouds.3 mph78%30.15 "HgN/A
11:00 AM68 °FBroken clouds.5 mph83%30.18 "HgN/A
10:00 AM64 °FBroken clouds.5 mph100%30.18 "HgN/A
9:00 AM63 °FDrizzle. Fog.3 mph100%30.18 "Hg1 mi
Weather by CustomWeather, © 2016

See weather overviewHow to use our weather pages